Location: ?????
(54.9266°N, 38.5527°E)
Time: 08:24:35
(UTC+00:00)

ATLAS 2AS CENTAUR R/B - Visible Passes

Search period start: 19 July 2024 00:00
Search period end: 29 July 2024 00:00
Orbit: 1019 x 1192 km, 63.7° (Epoch: 18 July)

Date Brightness Start Highest point End Pass type
(mag) Time Alt. Az. Time Alt. Az. Time Alt. Az.
24 Jul 5.1 23:52:31 10° ESE 23:54:37 11° ESE 23:56:41 10° E visible
27 Jul 4.6 00:09:17 10° SSE 00:14:40 23° ESE 00:19:55 10° ENE visible
27 Jul 4.9 23:26:25 10° SE 23:30:13 15° ESE 23:33:58 10° ENE visible
